Weather History for KCIC - October, 2012

Change the Weather History Date:

Friday, October 12, 2012

  Actual Average (KOVE) Record (KOVE)
Temperature  
Mean Temperature 58 °F -  
Max Temperature 64 °F 79 °F 94 °F (1991)
Min Temperature 53 °F 49 °F 41 °F (2008)
Degree Days  
Heating Degree Days 6    
Growing Degree Days 8 (Base 50)    
Moisture  
Dew Point 48 °F    
Average Humidity 72    
Maximum Humidity 82    
Minimum Humidity 56    
Precipitation  
Precipitation 0.00 in - - ()
Sea Level Pressure  
Sea Level Pressure 30.08 in    
Wind  
Wind Speed 4 mph (East)    
Max Wind Speed 9 mph    
Max Gust Speed -    
Visibility 10 miles    
Events      
Averages and records for this station are not official NWS values.
T = Trace of Precipitation, MM = Missing Value Source: NWS Daily Summary

Daily Weather History Graph

Daily Weather History Graph

Search for Another Location

Airport or City:

Trip Planner

Search our weather history database for the weather conditions in past years. The results will help you decide how hot, cold, wet, or windy it might be!

Date:

Astronomy

Oct. 12, 2012 Rise Set
Actual Time 7:15 AM PDT 6:31 PM PDT
Civil Twilight 6:48 AM PDT 6:58 PM PDT
Nautical Twilight 6:16 AM PDT 7:29 PM PDT
Astronomical Twilight 5:45 AM PDT 8:01 PM PDT
Moon 4:04 AM PDT (10/12) 4:44 PM PDT (10/12)
Length of Visible Light 12h 10m
Length of Day
11h 16m
Waning Crescent, 10% of the Moon is Illuminated
Oct 12
Waning Crescent
Oct 15
New
Oct 21
First Quarter
Oct 29
Full
Nov 6
Last Quarter

Hourly Weather History & Observations

Time (PDT) Temp. Dew Point Humidity Pressure Visibility Wind Dir Wind Speed Gust Speed Precip Events Conditions
12:15 AM 55.4 °F 48.2 °F 77% 29.98 in 10.0 mi ESE 5.8 mph - N/A   Overcast
12:35 AM 57.2 °F 48.2 °F 72% 29.98 in 10.0 mi ESE 5.8 mph - N/A   Overcast
12:55 AM 55.4 °F 48.2 °F 77% 29.98 in 10.0 mi ESE 4.6 mph - N/A   Overcast
1:15 AM 55.4 °F 48.2 °F 77% 29.98 in 10.0 mi Calm Calm - N/A   Overcast
1:35 AM 53.6 °F 48.2 °F 82% 29.98 in 10.0 mi Calm Calm - N/A   Overcast
1:55 AM 53.6 °F 48.2 °F 82% 29.99 in 10.0 mi NNW 4.6 mph - N/A   Overcast
2:15 AM 53.6 °F 48.2 °F 82% 30.00 in 10.0 mi NNW 5.8 mph - N/A   Overcast
2:35 AM 53.6 °F 48.2 °F 82% 30.00 in 10.0 mi North 5.8 mph - N/A   Overcast
2:55 AM 55.4 °F 48.2 °F 77% 30.00 in 10.0 mi North 4.6 mph - N/A   Overcast
3:15 AM 55.4 °F 48.2 °F 77% 30.00 in 10.0 mi NNW 3.5 mph - N/A   Overcast
3:35 AM 55.4 °F 48.2 °F 77% 29.99 in 10.0 mi NNW 4.6 mph - N/A   Overcast
3:55 AM 55.4 °F 48.2 °F 77% 29.99 in 10.0 mi NNW 3.5 mph - N/A   Overcast
4:15 AM 55.4 °F 48.2 °F 77% 30.00 in 10.0 mi NNW 3.5 mph - N/A   Overcast
4:35 AM 55.4 °F 48.2 °F 77% 30.00 in 10.0 mi NNW 3.5 mph - N/A   Overcast
4:55 AM 55.4 °F 48.2 °F 77% 30.00 in 10.0 mi NNW 3.5 mph - N/A   Overcast
5:35 AM 55.4 °F 48.2 °F 77% 30.01 in 10.0 mi Calm Calm - N/A   Overcast
5:55 AM 55.4 °F 48.2 °F 77% 30.01 in 10.0 mi Calm Calm - N/A   Overcast
6:15 AM 55.4 °F 48.2 °F 77% 30.02 in 10.0 mi Calm Calm - N/A   Overcast
6:35 AM 55.4 °F 48.2 °F 77% 30.03 in 10.0 mi Calm Calm - N/A   Overcast
6:50 AM 55.4 °F 48.2 °F 77% 30.03 in 10.0 mi Calm Calm - N/A   Overcast
6:55 AM 55.4 °F 48.2 °F 77% 30.03 in 10.0 mi Calm Calm - N/A   Overcast
7:15 AM 55.4 °F 48.2 °F 77% 30.04 in 10.0 mi SE 3.5 mph - N/A   Overcast
7:58 AM 57.2 °F 48.2 °F 72% 30.05 in 10.0 mi Calm Calm - N/A   Overcast
8:58 AM 57.2 °F 48.2 °F 72% 30.08 in 10.0 mi SE 6.9 mph - N/A   Overcast
9:47 AM 59.0 °F 48.2 °F 67% 30.10 in 10.0 mi SSE 5.8 mph - N/A   Overcast
12:47 PM 62.6 °F 48.2 °F 59% 30.14 in 10.0 mi South 8.1 mph - N/A   Overcast
1:50 PM 62.6 °F 48.2 °F 59% 30.13 in 25.0 mi SE 5.8 mph - N/A   Overcast
2:50 PM 64.4 °F 48.2 °F 56% 30.14 in 25.0 mi ESE 8.1 mph - N/A   Overcast
3:52 PM 64.4 °F 48.2 °F 56% 30.15 in 25.0 mi SSE 9.2 mph - N/A   Overcast
7:55 PM 60.8 °F 48.2 °F 63% 30.21 in 10.0 mi SE 4.6 mph - N/A   Overcast
8:15 PM 60.8 °F 48.2 °F 63% 30.21 in 10.0 mi SE 4.6 mph - N/A   Overcast
8:35 PM 60.8 °F 48.2 °F 63% 30.22 in 10.0 mi ESE 4.6 mph - N/A   Overcast
9:15 PM 59.0 °F 48.2 °F 67% 30.23 in 10.0 mi SE 3.5 mph - N/A   Overcast
9:35 PM 59.0 °F 46.4 °F 63% 30.23 in 10.0 mi Calm Calm - N/A   Overcast
9:55 PM 59.0 °F 48.2 °F 67% 30.23 in 10.0 mi Calm Calm - N/A   Overcast
10:15 PM 59.0 °F 48.2 °F 67% 30.23 in 10.0 mi Calm Calm - N/A   Overcast
11:35 PM 57.2 °F 46.4 °F 67% 30.25 in 10.0 mi NE 4.6 mph - N/A   Overcast
11:55 PM 55.4 °F 46.4 °F 72% 30.24 in 10.0 mi NE 4.6 mph - N/A   Overcast